QPF
0.00 0.00 0.00 0.00 0.00 0.00 0.00 0.00 0.00 0.00 0.00 0.00 0.00 0.00 0.00 0.00 0.00 0.00 0.00 0.00 0.00 0.00 0.00 0.00 0.00 0.01 0.00 0.00 0.00 0.00 0.00 0.00 0.00 0.00 0.00 0.00 0.00 0.00 0.00 0.00 0.01 0.01 0.00 0.00 0.00 0.00 0.00 0.00 0.00
0.00 0.00 0.00 0.00 0.00 0.00 0.00 0.00 0.00 0.00 0.00 0.00 0.00 0.00 0.00 0.00 0.00 0.00 0.00 0.00 0.00 0.00 0.00 0.00 0.00 0.00 0.00 0.00 0.00 0.00 0.00 0.00 0.00 0.00 0.00 0.00 0.00 0.00 0.00 0.00 0.00 0.00 0.00 0.01 0.00 0.00 0.00 0.00 0.00
0.00 0.00 0.00 0.00 0.00 0.00 0.00 0.00 0.00 0.00 0.00 0.00 0.00 0.00 0.00 0.00 0.00 0.00 0.00 0.00 0.00 0.00 0.00 0.00 0.00 0.01 0.00 0.00 0.00 0.00 0.00 0.00 0.00 0.00 0.00 0.00 0.00 0.00 0.00 0.00 0.00 0.00 0.00 0.00 0.00 0.01 0.00 0.00 0.00
0.00 0.00 0.00 0.00 0.00 0.00 0.00 0.00 0.00 0.00 0.00 0.00 0.00 0.00 0.00 0.00 0.00 0.00 0.00 0.00 0.00 0.00 0.00 0.00 0.00 0.01 0.01 0.00 0.00 0.00 0.00 0.00 0.00 0.00 0.00 0.00 0.00 0.00 0.00 0.00 0.00 0.00 0.00 0.00 0.00 0.00 0.01 0.00 0.00
0.00 0.00 0.00 0.00 0.00 0.00 0.00 0.00 0.00 0.00 0.00 0.00 0.00 0.00 0.00 0.00 0.00 0.00 0.00 0.00 0.00 0.00 0.00 0.00 0.00 0.00 0.00 0.00 0.00 0.00 0.00 0.00 0.00 0.00 0.00 0.00 0.00 0.00 0.00 0.00 0.00 0.00 0.00 0.00 0.00 0.00 0.00 0.00 0.00
0.00 0.00 0.00 0.00 0.00 0.00 0.00 0.00 0.00 0.00 0.00 0.00 0.00 0.00 0.00 0.00 0.00 0.00 0.00 0.00 0.00 0.00 0.00 0.00 0.00 0.00 0.00 0.00 0.00 0.00 0.00 0.00 0.00 0.00 0.00 0.00 0.00 0.00 0.00 0.00 0.00 0.00 0.00 0.00 0.00 0.00 0.00 0.00 0.00
0.00 0.00 0.00 0.00 0.00 0.00 0.00 0.00 0.00 0.00 0.00 0.00 0.00 0.00 0.00 0.00 0.00 0.00 0.00 0.00 0.00 0.00 0.00 0.00 0.00 0.00 0.00 0.00 0.00 0.00 0.00 0.00 0.00 0.00 0.00 0.00 0.00 0.00 0.00 0.00 0.00 0.00 0.00 0.00 0.00 0.00 0.00 0.00 0.00
0.00 0.00 0.00 0.00 0.00 0.00 0.00 0.00 0.00 0.00 0.00 0.00 0.00 0.00 0.00 0.00 0.00 0.00 0.00 0.00 0.00 0.00 0.00 0.00 0.00 0.00 0.00 0.00 0.00 0.00 0.00 0.00 0.00 0.00 0.00 0.00 0.00 0.00 0.00 0.00 0.00 0.00 0.00 0.00 0.00 0.00 0.00 0.00 0.00
0.00 0.00 0.00 0.00 0.00 0.00 0.00 0.00 0.00 0.00 0.00 0.00 0.00 0.00 0.00 0.00 0.00 0.00 0.00 0.00 0.00 0.00 0.00 0.00 0.00 0.00 0.00 0.00 0.00 0.00 0.00 0.00 0.00 0.00 0.00 0.00 0.00 0.00 0.00 0.00 0.00 0.00 0.00 0.00 0.00 0.00 0.00 0.00 0.00
0.00 0.00 0.00 0.00 0.00 0.00 0.00 0.00 0.00 0.00 0.00 0.00 0.00 0.00 0.00 0.00 0.00 0.00 0.00 0.00 0.00 0.00 0.00 0.00 0.00 0.00 0.00 0.00 0.00 0.00 0.00 0.00 0.00 0.00 0.00 0.00 0.00 0.00 0.00 0.00 0.00 0.00 0.00 0.00 0.00 0.00 0.00 0.00 0.00
0.00 0.00 0.00 0.00 0.00 0.00 0.00 0.00 0.00 0.00 0.00 0.00 0.00 0.00 0.00 0.00 0.00 0.00 0.00 0.00 0.00 0.00 0.00 0.00 0.00 0.00 0.00 0.00 0.00 0.00 0.00 0.00 0.00 0.00 0.00 0.00 0.00 0.00 0.00 0.00 0.00 0.00 0.00 0.00 0.00 0.00 0.00 0.00 0.00
0.00 0.00 0.00 0.00 0.00 0.00 0.00 0.00 0.00 0.00 0.00 0.00 0.00 0.00 0.00 0.00 0.00 0.00 0.00 0.00 0.00 0.00 0.00 0.00 0.00 0.00 0.00 0.00 0.00 0.00 0.00 0.00 0.00 0.00 0.00 0.00 0.00 0.00 0.00 0.00 0.00 0.00 0.00 0.00 0.00 0.00 0.00 0.00 0.00
0.00 0.00 0.00 0.00 0.00 0.00 0.00 0.00 0.00 0.00 0.00 0.00 0.00 0.00 0.00 0.00 0.00 0.00 0.00 0.00 0.00 0.00 0.00 0.00 0.00 0.00 0.00 0.00 0.00 0.00 0.00 0.00 0.00 0.00 0.00 0.00 0.00 0.00 0.00 0.00 0.00 0.00 0.00 0.00 0.00 0.00 0.00 0.00 0.00
0.00 0.00 0.00 0.00 0.00 0.00 0.00 0.00 0.00 0.00 0.00 0.00 0.00 0.00 0.00 0.00 0.00 0.00 0.00 0.00 0.00 0.00 0.00 0.00 0.00 0.00 0.00 0.00 0.00 0.00 0.00 0.00 0.00 0.00 0.00 0.00 0.00 0.00 0.00 0.00 0.00 0.00 0.00 0.00 0.00 0.00 0.00 0.00 0.00
0.00 0.00 0.00 0.00 0.00 0.00 0.00 0.00 0.00 0.00 0.00 0.00 0.00 0.00 0.00 0.00 0.00 0.00 0.00 0.00 0.00 0.00 0.00 0.00 0.00 0.00 0.00 0.00 0.00 0.00 0.00 0.00 0.00 0.00 0.00 0.00 0.00 0.00 0.00 0.00 0.00 0.00 0.00 0.00 0.00 0.00 0.00 0.00 0.00
0.00 0.00 0.00 0.00 0.00 0.00 0.00 0.00 0.00 0.00 0.00 0.00 0.00 0.00 0.00 0.00 0.00 0.00 0.00 0.00 0.00 0.00 0.00 0.00 0.00 0.00 0.00 0.00 0.00 0.00 0.00 0.00 0.00 0.00 0.00 0.00 0.00 0.00 0.00 0.00 0.00 0.00 0.00 0.00 0.00 0.00 0.00 0.00 0.00
0.00 0.00 0.00 0.00 0.00 0.00 0.00 0.00 0.00 0.00 0.00 0.00 0.00 0.00 0.00 0.00 0.00 0.00 0.00 0.00 0.00 0.00 0.00 0.00 0.00 0.00 0.00 0.00 0.00 0.00 0.00 0.00 0.00 0.00 0.00 0.00 0.00 0.00 0.00 0.00 0.00 0.00 0.00 0.00 0.00 0.00 0.00 0.00 0.00
0.00 0.00 0.00 0.00 0.00 0.00 0.00 0.00 0.00 0.00 0.00 0.00 0.00 0.00 0.00 0.00 0.00 0.00 0.00 0.00 0.00 0.00 0.00 0.00 0.00 0.00 0.00 0.00 0.00 0.00 0.00 0.00 0.00 0.00 0.00 0.00 0.00 0.00 0.00 0.00 0.00 0.00 0.00 0.00 0.00 0.00 0.00 0.00 0.00
0.00 0.00 0.00 0.00 0.00 0.00 0.00 0.00 0.00 0.00 0.00 0.00 0.00 0.00 0.00 0.00 0.00 0.00 0.00 0.00 0.00 0.00 0.00 0.00 0.00 0.00 0.00 0.00 0.00 0.00 0.00 0.00 0.00 0.00 0.00 0.00 0.00 0.00 0.00 0.00 0.00 0.00 0.00 0.00 0.00 0.00 0.00 0.00 0.00
0.00 0.00 0.00 0.00 0.00 0.00 0.00 0.00 0.00 0.00 0.00 0.00 0.00 0.00 0.00 0.00 0.00 0.00 0.00 0.00 0.00 0.00 0.00 0.00 0.00 0.00 0.00 0.00 0.00 0.00 0.00 0.00 0.00 0.00 0.00 0.00 0.00 0.00 0.00 0.00 0.00 0.00 0.00 0.00 0.00 0.00 0.00 0.00 0.00
0.00 0.00 0.00 0.00 0.00 0.00 0.00 0.00 0.00 0.00 0.00 0.00 0.00 0.00 0.00 0.00 0.00 0.00 0.00 0.00 0.00 0.00 0.00 0.00 0.00 0.00 0.00 0.00 0.00 0.00 0.00 0.00 0.00 0.00 0.00 0.00 0.00 0.00 0.00 0.00 0.00 0.00 0.00 0.00 0.00 0.00 0.00 0.00 0.00
0.00 0.00 0.00 0.00 0.00 0.00 0.00 0.00 0.00 0.00 0.00 0.00 0.00 0.00 0.00 0.00 0.00 0.00 0.00 0.00 0.00 0.00 0.00 0.00 0.00 0.00 0.00 0.00 0.00 0.00 0.00 0.00 0.00 0.00 0.00 0.00 0.00 0.00 0.00 0.00 0.00 0.00 0.00 0.00 0.00 0.00 0.00 0.00 0.00
0.00 0.00 0.00 0.00 0.00 0.00 0.00 0.00 0.00 0.00 0.00 0.00 0.00 0.00 0.00 0.00 0.00 0.00 0.00 0.00 0.00 0.00 0.00 0.00 0.00 0.00 0.00 0.00 0.00 0.00 0.00 0.00 0.00 0.00 0.00 0.00 0.00 0.00 0.00 0.00 0.00 0.00 0.00 0.00 0.00 0.00 0.00 0.00 0.00
0.00 0.00 0.00 0.00 0.00 0.00 0.00 0.00 0.00 0.00 0.00 0.00 0.00 0.00 0.00 0.00 0.00 0.00 0.00 0.00 0.00 0.00 0.00 0.00 0.00 0.00 0.00 0.00 0.00 0.00 0.00 0.00 0.00 0.00 0.00 0.00 0.00 0.00 0.00 0.00 0.00 0.00 0.00 0.00 0.00 0.00 0.00 0.00 0.00
0.00 0.00 0.00 0.00 0.00 0.00 0.00 0.00 0.00 0.00 0.00 0.00 0.00 0.00 0.00 0.00 0.00 0.00 0.00 0.00 0.00 0.00 0.00 0.00 0.00 0.00 0.00 0.00 0.00 0.00 0.00 0.00 0.00 0.00 0.00 0.00 0.00 0.00 0.00 0.00 0.00 0.00 0.00 0.00 0.00 0.00 0.00 0.00 0.00
0.00 0.00 0.00 0.00 0.00 0.00 0.00 0.00 0.00 0.00 0.00 0.00 0.00 0.00 0.00 0.00 0.00 0.00 0.00 0.00 0.00 0.00 0.00 0.00 0.00 0.00 0.00 0.00 0.00 0.00 0.00 0.00 0.00 0.00 0.00 0.00 0.00 0.00 0.00 0.00 0.00 0.00 0.00 0.00 0.00 0.00 0.00 0.00 0.00
0.00 0.00 0.00 0.00 0.00 0.00 0.00 0.00 0.00 0.00 0.00 0.00 0.00 0.00 0.00 0.00 0.00 0.00 0.00 0.00 0.00 0.00 0.00 0.00 0.00 0.00 0.00 0.00 0.00 0.00 0.00 0.00 0.00 0.00 0.00 0.00 0.00 0.00 0.00 0.00 0.00 0.00 0.00 0.00 0.00 0.00 0.00 0.00 0.00
0.00 0.00 0.00 0.00 0.00 0.00 0.00 0.00 0.00 0.00 0.00 0.00 0.00 0.00 0.00 0.00 0.00 0.00 0.00 0.00 0.00 0.00 0.00 0.00 0.00 0.00 0.00 0.00 0.00 0.00 0.00 0.00 0.00 0.00 0.00 0.00 0.00 0.00 0.00 0.00 0.00 0.00 0.00 0.00 0.00 0.00 0.00 0.00 0.00
0.00 0.00 0.00 0.00 0.00 0.04 0.03 0.01 0.00 0.00 0.00 0.00 0.00 0.00 0.00 0.00 0.00 0.00 0.00 0.00 0.00 0.00 0.00 0.00 0.00 0.00 0.00 0.00 0.00 0.00 0.00 0.00 0.00 0.00 0.00 0.00 0.00 0.00 0.00 0.00 0.00 0.00 0.00 0.00 0.00 0.00 0.00 0.00 0.00
0.00 0.00 0.01 0.06 0.07 0.05 0.12 0.11 0.00 0.00 0.00 0.00 0.00 0.00 0.00 0.00 0.00 0.00 0.00 0.00 0.00 0.00 0.00 0.00 0.00 0.00 0.00 0.00 0.00 0.00 0.00 0.00 0.00 0.00 0.00 0.00 0.00 0.00 0.00 0.00 0.00 0.00 0.00 0.00 0.00 0.00 0.00 0.00 0.00
MSLP
1014.03 1014.08 1014.30 1014.49 1015.14 1015.09 1015.21 1015.43 1015.42 1015.46 1015.75 1015.93 1016.13 1016.34 1016.45 1016.65 1016.62 1017.12 1016.93 1016.97 1016.97 1017.17 1017.49 1017.58 1017.77 1017.94 1018.09 1018.13 1018.28 1018.36 1018.35 1018.44 1018.53 1018.54 1018.59 1018.49 1018.45 1018.33 1018.25 1018.13 1018.02 1017.91 1017.82 1017.78 1017.77 1017.69 1017.62 1017.58 1017.56
1014.01 1014.12 1014.41 1014.64 1014.92 1014.98 1015.00 1015.16 1015.20 1015.30 1015.62 1016.01 1016.26 1016.45 1016.60 1016.51 1016.70 1016.78 1016.85 1016.98 1016.88 1017.13 1017.38 1017.59 1017.81 1017.93 1018.12 1018.27 1018.39 1018.53 1018.59 1018.70 1018.77 1018.83 1018.88 1018.87 1018.83 1018.81 1018.81 1018.67 1018.47 1018.28 1018.14 1018.02 1017.95 1017.87 1017.83 1017.74 1017.76
1013.86 1013.89 1014.35 1014.72 1015.07 1014.83 1014.80 1014.87 1015.02 1015.40 1015.86 1015.95 1016.21 1016.56 1016.52 1016.31 1016.51 1016.43 1016.63 1016.79 1016.95 1017.22 1017.44 1017.66 1017.84 1017.95 1018.24 1018.40 1018.57 1018.68 1018.84 1018.92 1018.97 1019.05 1019.14 1019.19 1019.11 1019.06 1019.02 1019.01 1018.90 1018.74 1018.56 1018.44 1018.29 1018.16 1018.03 1017.97 1017.92
1013.92 1014.28 1014.92 1014.68 1014.77 1014.64 1014.62 1014.61 1014.93 1015.53 1015.98 1016.00 1016.18 1016.44 1016.61 1016.21 1016.18 1016.27 1016.58 1016.70 1016.97 1017.31 1017.49 1017.69 1017.83 1018.02 1018.27 1018.54 1018.74 1018.96 1019.09 1019.12 1019.19 1019.36 1019.35 1019.47 1019.41 1019.31 1019.34 1019.24 1019.18 1019.06 1018.84 1018.75 1018.76 1018.65 1018.36 1018.23 1018.16
1014.34 1014.68 1014.85 1014.92 1014.78 1014.57 1014.59 1014.66 1014.95 1015.28 1015.52 1015.69 1016.05 1016.15 1016.33 1016.22 1016.32 1016.39 1016.63 1016.85 1017.02 1017.36 1017.57 1017.60 1017.85 1018.07 1018.29 1018.73 1018.94 1019.14 1019.22 1019.44 1019.52 1019.66 1019.71 1019.79 1019.67 1019.61 1019.67 1019.62 1019.58 1019.52 1019.26 1019.12 1019.23 1019.10 1018.87 1018.68 1018.48
1014.71 1015.12 1015.21 1015.05 1014.81 1014.52 1014.48 1014.53 1014.76 1015.22 1015.42 1015.93 1016.07 1016.06 1015.96 1016.10 1016.22 1016.39 1016.69 1016.84 1016.99 1017.28 1017.54 1017.61 1017.92 1018.14 1018.40 1018.75 1019.05 1019.31 1019.51 1019.66 1019.73 1019.92 1020.04 1020.02 1019.99 1019.89 1019.93 1019.94 1019.99 1019.92 1019.78 1019.63 1019.56 1019.51 1019.38 1019.20 1019.01
1014.88 1015.40 1015.30 1015.04 1014.82 1014.57 1014.25 1014.53 1014.63 1014.69 1015.17 1015.35 1015.48 1015.59 1015.80 1015.92 1016.11 1016.45 1016.77 1017.04 1017.09 1017.33 1017.53 1017.63 1017.91 1018.23 1018.51 1018.88 1019.14 1019.42 1019.66 1019.83 1019.99 1020.18 1020.33 1020.28 1020.28 1020.23 1020.27 1020.22 1020.30 1020.29 1020.15 1020.06 1019.92 1019.90 1019.78 1019.60 1019.47
1015.45 1015.61 1015.52 1015.26 1014.97 1014.44 1014.16 1014.40 1014.16 1014.47 1014.58 1015.23 1015.38 1015.18 1015.22 1015.12 1016.07 1016.63 1016.93 1017.16 1017.34 1017.44 1017.56 1017.72 1018.06 1018.26 1018.53 1018.94 1019.29 1019.58 1019.84 1020.00 1020.23 1020.48 1020.65 1020.72 1020.75 1020.62 1020.65 1020.70 1020.59 1020.64 1020.52 1020.46 1020.40 1020.33 1020.30 1020.15 1019.96
1015.56 1015.84 1015.59 1015.13 1015.12 1014.30 1014.22 1014.36 1014.25 1014.45 1014.63 1014.96 1014.98 1014.93 1015.03 1015.30 1016.19 1016.76 1017.17 1017.41 1017.48 1017.61 1017.73 1017.82 1018.13 1018.42 1018.72 1018.98 1019.38 1019.70 1019.98 1020.24 1020.50 1020.72 1020.95 1021.09 1021.19 1021.15 1020.92 1021.06 1021.08 1021.01 1020.95 1020.87 1020.86 1020.75 1020.71 1020.68 1020.56
1015.76 1015.98 1015.20 1014.67 1014.47 1014.20 1014.06 1014.16 1013.99 1014.51 1014.61 1014.73 1014.75 1014.85 1015.29 1015.65 1016.05 1016.33 1016.66 1016.92 1017.18 1017.39 1017.80 1017.82 1018.14 1018.46 1018.78 1019.19 1019.61 1019.89 1020.35 1020.67 1020.78 1021.01 1021.16 1021.18 1021.35 1021.42 1021.39 1021.45 1021.52 1021.60 1021.47 1021.43 1021.35 1021.24 1021.12 1020.94 1020.96
1016.04 1015.72 1015.20 1014.53 1014.29 1014.25 1014.19 1014.09 1014.01 1013.97 1014.08 1013.50 1013.34 1013.56 1014.88 1015.52 1015.92 1016.08 1016.22 1016.28 1016.42 1017.06 1017.67 1017.89 1018.07 1018.44 1018.77 1019.20 1019.69 1020.08 1020.43 1020.74 1020.93 1021.07 1021.12 1021.28 1021.59 1021.77 1021.84 1022.02 1021.97 1022.04 1022.12 1021.90 1021.82 1021.68 1021.61 1021.58 1021.47
1016.31 1015.68 1015.51 1014.87 1014.49 1014.49 1014.39 1014.16 1013.97 1013.57 1012.49 1012.76 1012.97 1013.46 1014.39 1015.06 1015.31 1015.31 1015.54 1015.81 1016.19 1016.59 1017.04 1017.64 1017.98 1018.39 1018.70 1019.17 1019.49 1019.87 1020.15 1020.50 1020.74 1020.99 1021.11 1021.25 1021.56 1021.79 1021.97 1022.05 1022.19 1022.13 1022.26 1022.25 1022.17 1022.16 1022.18 1022.03 1021.95
1016.30 1015.85 1015.44 1014.96 1014.76 1014.65 1014.49 1014.25 1013.86 1013.14 1012.97 1013.07 1013.40 1013.70 1013.87 1014.15 1014.28 1014.59 1014.68 1015.36 1016.06 1016.43 1016.75 1017.18 1017.63 1017.94 1018.38 1018.87 1019.31 1019.70 1019.93 1020.22 1020.53 1020.80 1021.07 1021.15 1021.47 1021.69 1022.00 1022.20 1022.22 1022.25 1022.27 1022.30 1022.43 1022.40 1022.35 1022.27 1022.18
1016.32 1016.03 1015.56 1015.01 1014.72 1014.57 1014.38 1013.88 1013.68 1012.75 1012.57 1012.78 1013.17 1013.32 1013.49 1013.49 1013.51 1013.95 1014.63 1014.83 1015.23 1015.60 1016.02 1016.58 1017.13 1017.51 1018.04 1018.41 1018.88 1019.28 1019.76 1020.12 1020.45 1020.68 1020.93 1021.12 1021.32 1021.55 1021.91 1022.13 1022.34 1022.36 1022.28 1022.30 1022.42 1022.55 1022.54 1022.53 1022.34
1016.26 1016.17 1015.56 1014.82 1014.58 1014.30 1014.24 1013.64 1012.33 1011.98 1012.35 1012.21 1012.26 1012.47 1012.72 1012.85 1013.33 1013.05 1012.93 1013.42 1013.92 1014.42 1015.20 1015.90 1016.51 1017.14 1017.50 1017.84 1018.44 1019.04 1019.45 1019.86 1020.13 1020.39 1020.64 1020.95 1021.19 1021.31 1021.72 1021.94 1022.11 1022.30 1022.38 1022.29 1022.32 1022.54 1022.61 1022.54 1022.47
1016.67 1016.57 1016.16 1015.01 1014.87 1014.36 1014.44 1012.41 1011.64 1012.17 1012.16 1011.77 1011.88 1012.01 1012.21 1012.28 1012.34 1012.09 1012.66 1013.09 1013.45 1014.13 1014.62 1015.20 1015.84 1016.43 1016.92 1017.45 1018.02 1018.53 1019.01 1019.36 1019.68 1020.03 1020.27 1020.55 1020.91 1021.16 1021.48 1021.79 1021.99 1022.27 1022.37 1022.37 1022.30 1022.35 1022.54 1022.59 1022.53
1017.47 1017.05 1016.81 1015.79 1014.81 1014.77 1014.51 1013.06 1011.95 1012.33 1012.57 1012.18 1011.91 1011.70 1011.85 1011.74 1011.75 1011.40 1011.93 1011.96 1012.41 1012.87 1013.56 1014.34 1015.02 1015.53 1016.15 1016.87 1017.50 1017.96 1018.44 1018.84 1019.20 1019.56 1019.83 1020.20 1020.64 1020.97 1021.18 1021.57 1021.93 1022.17 1022.29 1022.32 1022.27 1022.38 1022.47 1022.55 1022.56
1017.74 1017.63 1017.03 1016.49 1015.17 1015.02 1014.45 1013.22 1012.25 1011.70 1012.19 1011.84 1011.22 1010.95 1010.85 1010.69 1009.95 1010.06 1010.58 1011.05 1011.66 1012.20 1012.78 1013.56 1014.29 1014.88 1015.72 1016.62 1017.35 1017.95 1018.39 1018.62 1018.90 1019.14 1019.46 1019.78 1020.31 1020.72 1021.01 1021.47 1021.75 1021.93 1022.15 1022.34 1022.42 1022.29 1022.51 1022.67 1022.68
1017.81 1017.61 1017.10 1015.77 1015.06 1014.96 1013.67 1012.16 1011.67 1010.73 1010.98 1010.72 1010.26 1009.76 1009.35 1008.89 1008.08 1008.79 1009.34 1010.06 1010.86 1011.48 1012.13 1012.75 1013.53 1014.22 1015.29 1016.20 1016.93 1017.60 1017.58 1018.17 1018.63 1018.93 1019.15 1019.46 1019.96 1020.40 1020.79 1021.18 1021.48 1021.75 1021.85 1022.15 1022.35 1022.36 1022.38 1022.52 1022.65
1017.69 1017.55 1016.76 1015.60 1014.66 1014.66 1013.15 1010.17 1010.30 1009.89 1008.57 1008.59 1008.62 1008.19 1007.73 1007.35 1007.45 1007.73 1008.21 1008.90 1009.41 1009.69 1010.46 1011.37 1012.13 1013.20 1014.00 1014.65 1015.31 1016.09 1016.73 1017.55 1017.88 1018.55 1018.86 1019.20 1019.63 1020.01 1020.40 1020.76 1021.09 1021.41 1021.69 1022.07 1022.26 1022.30 1022.35 1022.60 1022.78
1017.66 1017.46 1016.47 1015.90 1014.86 1013.79 1012.73 1008.34 1007.77 1007.63 1007.65 1007.46 1007.67 1007.09 1006.68 1006.66 1006.53 1006.65 1007.38 1007.81 1008.51 1008.97 1009.42 1009.89 1010.48 1011.32 1012.40 1013.60 1014.96 1016.04 1016.80 1017.39 1017.90 1018.15 1018.42 1018.85 1019.22 1019.63 1019.95 1020.37 1020.71 1021.05 1021.33 1021.68 1021.98 1022.24 1022.21 1022.31 1022.73
1017.23 1016.00 1015.95 1015.86 1016.01 1014.58 1013.36 1009.05 1007.22 1007.23 1006.68 1006.90 1006.68 1006.18 1005.96 1006.15 1006.18 1006.19 1006.51 1006.98 1007.17 1007.19 1007.59 1008.40 1009.05 1009.92 1011.14 1012.29 1013.33 1013.93 1014.24 1015.21 1015.74 1016.50 1017.54 1018.24 1018.72 1019.11 1019.54 1019.95 1020.37 1020.66 1021.01 1021.27 1021.58 1021.95 1022.04 1022.24 1022.30
1016.15 1015.96 1015.99 1015.96 1015.78 1015.02 1013.40 1012.83 1003.98 1005.79 1006.47 1006.26 1005.72 1005.95 1006.09 1006.01 1005.76 1005.77 1005.96 1005.96 1005.81 1006.17 1006.70 1007.18 1008.05 1008.97 1009.86 1010.84 1011.51 1012.44 1013.33 1014.00 1015.11 1016.18 1017.00 1017.66 1018.24 1018.63 1019.11 1019.51 1019.98 1020.27 1020.64 1020.81 1021.17 1021.54 1021.79 1022.01 1022.12
1015.85 1016.01 1016.09 1016.24 1015.85 1014.24 1012.24 1011.90 1004.44 1005.97 1006.07 1006.38 1006.06 1005.59 1005.80 1006.81 1007.20 1007.16 1006.63 1006.31 1006.03 1006.09 1006.18 1006.56 1007.11 1007.37 1008.27 1009.25 1010.05 1010.83 1011.88 1013.02 1014.27 1015.30 1016.16 1016.94 1017.66 1018.23 1018.71 1019.12 1019.48 1019.79 1020.20 1020.48 1020.87 1021.13 1021.42 1021.68 1021.92
1016.17 1016.55 1016.61 1016.24 1015.81 1013.47 1012.00 1010.93 1006.27 1006.55 1006.41 1007.10 1007.18 1007.50 1007.71 1007.32 1007.08 1007.06 1006.81 1006.52 1006.14 1005.82 1005.69 1005.69 1006.15 1006.59 1007.26 1008.08 1008.87 1009.74 1010.67 1011.79 1012.64 1013.80 1014.80 1016.01 1016.87 1017.56 1017.99 1018.51 1019.01 1019.43 1019.90 1020.17 1020.50 1020.76 1020.99 1021.27 1021.52
1016.56 1016.83 1017.22 1016.31 1014.88 1013.45 1012.61 1010.02 1007.17 1007.15 1007.68 1008.46 1009.13 1009.44 1009.12 1008.60 1008.17 1007.87 1007.45 1006.66 1006.10 1005.51 1005.19 1005.39 1005.57 1005.89 1006.82 1007.66 1008.05 1008.84 1009.86 1010.83 1011.69 1012.72 1013.80 1014.83 1015.58 1016.26 1017.13 1017.86 1018.39 1018.85 1019.38 1019.83 1020.15 1020.35 1020.52 1020.76 1021.01
1017.31 1017.56 1017.75 1017.04 1015.21 1014.06 1011.45 1009.43 1008.15 1007.90 1008.82 1009.64 1009.51 1009.30 1009.26 1009.21 1008.82 1008.31 1007.41 1006.70 1006.01 1004.96 1004.75 1004.88 1005.18 1005.69 1005.70 1006.25 1007.35 1008.16 1009.04 1009.93 1010.86 1012.01 1013.02 1013.93 1014.90 1015.76 1016.58 1017.16 1017.90 1018.50 1018.96 1019.40 1019.70 1019.90 1020.07 1020.32 1020.45
1018.57 1019.02 1018.32 1018.29 1016.58 1014.00 1011.75 1010.57 1009.21 1009.49 1010.37 1010.30 1010.00 1009.76 1009.54 1009.23 1008.87 1008.56 1007.71 1006.99 1006.25 1005.40 1004.68 1004.81 1005.05 1005.24 1005.78 1005.97 1006.29 1006.92 1007.96 1009.08 1010.09 1011.20 1012.23 1013.20 1014.13 1015.05 1015.97 1016.58 1017.38 1017.98 1018.42 1018.85 1019.22 1019.46 1019.64 1019.86 1019.92
1019.43 1019.77 1019.92 1019.40 1018.61 1016.74 1014.28 1011.70 1011.62 1011.64 1011.86 1011.56 1011.00 1010.27 1010.19 1009.97 1009.70 1009.19 1008.44 1007.66 1006.80 1005.92 1004.94 1004.67 1004.81 1005.03 1005.41 1006.25 1006.44 1006.67 1007.32 1008.41 1009.49 1010.37 1011.39 1012.24 1013.22 1014.19 1015.11 1015.70 1016.69 1017.28 1017.86 1018.26 1018.64 1018.90 1019.14 1019.35 1019.40
1020.70 1021.37 1021.83 1022.14 1020.51 1019.73 1018.64 1015.93 1014.56 1013.41 1012.65 1012.30 1011.04 1010.76 1009.92 1009.76 1009.55 1009.11 1008.25 1007.67 1007.18 1005.76 1005.15 1004.91 1004.78 1004.75 1004.94 1005.32 1006.09 1006.61 1006.99 1007.60 1008.38 1009.37 1010.46 1011.50 1012.42 1013.44 1014.24 1014.95 1015.81 1016.57 1017.20 1017.68 1018.05 1018.33 1018.47 1018.69 1018.83
Thickness
5796 5797 5797 5790 5768 5762 5748 5755 5767 5766 5769 5777 5780 5774 5771 5773 5770 5760 5786 5788 5787 5785 5781 5780 5778 5775 5772 5770 5768 5766 5764 5762 5760 5759 5757 5757 5757 5757 5756 5756 5755 5755 5755 5754 5753 5752 5751 5750 5749
5796 5797 5791 5777 5758 5747 5752 5762 5762 5772 5776 5777 5777 5774 5771 5770 5778 5780 5783 5788 5787 5785 5782 5780 5778 5775 5772 5770 5768 5765 5763 5760 5758 5757 5755 5753 5752 5752 5751 5750 5751 5751 5752 5751 5751 5751 5750 5750 5748
5798 5799 5781 5764 5748 5749 5753 5763 5771 5774 5775 5776 5772 5773 5773 5773 5781 5786 5789 5789 5786 5783 5781 5779 5777 5775 5771 5769 5766 5764 5761 5759 5756 5754 5752 5750 5749 5748 5747 5746 5746 5747 5747 5747 5748 5748 5748 5748 5747
5791 5788 5776 5760 5750 5760 5763 5771 5774 5768 5772 5776 5774 5768 5775 5787 5787 5791 5791 5788 5785 5781 5780 5778 5776 5774 5771 5767 5764 5761 5758 5756 5754 5751 5749 5747 5746 5745 5744 5743 5742 5743 5744 5744 5743 5744 5745 5745 5744
5786 5776 5757 5748 5750 5761 5766 5772 5773 5769 5773 5774 5774 5771 5771 5784 5789 5791 5789 5786 5783 5780 5777 5777 5775 5772 5769 5764 5761 5758 5755 5752 5750 5747 5746 5744 5743 5742 5739 5738 5738 5738 5740 5740 5739 5739 5739 5740 5740
5769 5767 5748 5742 5748 5761 5768 5774 5774 5771 5772 5769 5769 5769 5777 5786 5787 5788 5787 5785 5782 5779 5776 5775 5772 5770 5767 5763 5759 5755 5752 5750 5747 5744 5742 5741 5740 5739 5736 5734 5734 5734 5735 5735 5735 5734 5734 5735 5735
5763 5755 5747 5747 5747 5754 5768 5773 5771 5774 5770 5772 5778 5772 5778 5782 5787 5787 5785 5782 5779 5776 5774 5772 5769 5767 5764 5760 5756 5753 5750 5747 5744 5741 5739 5738 5737 5736 5733 5731 5729 5729 5730 5730 5731 5730 5730 5730 5730
5760 5755 5742 5744 5745 5754 5770 5771 5779 5775 5775 5777 5780 5776 5777 5787 5785 5783 5780 5778 5776 5773 5771 5769 5766 5764 5761 5757 5753 5750 5747 5744 5741 5737 5735 5734 5732 5731 5729 5726 5725 5724 5725 5725 5725 5725 5725 5725 5725
5761 5744 5739 5746 5742 5760 5768 5767 5776 5779 5775 5774 5779 5781 5785 5787 5781 5776 5772 5771 5770 5769 5768 5765 5763 5760 5756 5754 5750 5746 5743 5740 5737 5734 5731 5729 5727 5725 5724 5721 5720 5719 5719 5719 5719 5720 5720 5719 5719
5750 5737 5746 5758 5759 5762 5769 5768 5774 5771 5769 5769 5774 5781 5780 5780 5777 5774 5770 5767 5767 5765 5762 5762 5759 5756 5753 5749 5746 5743 5738 5735 5733 5730 5727 5725 5722 5719 5718 5716 5714 5712 5712 5712 5712 5713 5713 5714 5712
5743 5741 5748 5759 5763 5766 5766 5765 5774 5772 5764 5777 5781 5788 5778 5774 5773 5771 5770 5770 5768 5765 5760 5758 5756 5752 5749 5746 5742 5738 5735 5731 5729 5726 5724 5721 5717 5714 5712 5709 5708 5706 5704 5704 5704 5705 5704 5704 5704
5737 5745 5747 5756 5762 5761 5760 5766 5767 5771 5786 5787 5787 5785 5777 5772 5772 5773 5771 5769 5766 5764 5761 5756 5752 5748 5745 5742 5739 5736 5733 5729 5726 5723 5720 5717 5713 5709 5707 5704 5701 5700 5698 5697 5696 5695 5694 5694 5694
5736 5741 5748 5754 5755 5756 5759 5758 5764 5772 5778 5779 5777 5776 5776 5776 5776 5775 5776 5771 5764 5760 5757 5754 5749 5746 5742 5738 5735 5732 5729 5726 5723 5720 5717 5714 5710 5706 5702 5699 5697 5695 5693 5691 5689 5688 5687 5686 5686
5736 5738 5742 5749 5751 5752 5751 5755 5762 5775 5774 5773 5772 5774 5774 5775 5776 5774 5768 5766 5764 5760 5756 5752 5747 5743 5739 5736 5732 5728 5725 5722 5718 5715 5712 5710 5706 5702 5698 5694 5690 5688 5687 5686 5683 5680 5679 5678 5678
5734 5729 5736 5745 5747 5747 5745 5750 5766 5774 5770 5773 5773 5775 5774 5774 5772 5775 5776 5772 5767 5763 5756 5750 5744 5739 5736 5733 5728 5723 5720 5717 5714 5711 5708 5705 5702 5699 5694 5690 5686 5683 5681 5680 5677 5674 5672 5671 5670
5720 5720 5716 5737 5735 5741 5741 5753 5775 5766 5764 5768 5769 5769 5768 5771 5771 5777 5774 5769 5765 5758 5752 5747 5743 5738 5733 5729 5723 5719 5716 5714 5710 5707 5704 5701 5698 5695 5690 5685 5681 5677 5675 5673 5671 5669 5666 5664 5663
5701 5704 5700 5717 5734 5730 5728 5735 5765 5755 5748 5753 5758 5762 5762 5765 5766 5774 5769 5768 5765 5760 5753 5747 5742 5738 5732 5725 5720 5716 5713 5710 5706 5702 5700 5697 5693 5689 5686 5680 5675 5671 5668 5666 5664 5662 5660 5657 5655
5692 5690 5694 5698 5726 5715 5713 5720 5744 5757 5744 5749 5758 5762 5760 5763 5775 5776 5769 5767 5761 5755 5750 5744 5738 5734 5727 5717 5711 5708 5704 5701 5699 5696 5695 5692 5687 5683 5679 5674 5670 5666 5662 5659 5656 5655 5651 5648 5646
5690 5686 5687 5711 5720 5705 5716 5724 5737 5757 5746 5748 5754 5761 5764 5768 5782 5777 5770 5763 5755 5750 5744 5739 5732 5728 5718 5710 5704 5700 5700 5694 5691 5690 5688 5685 5680 5677 5672 5668 5663 5659 5656 5652 5649 5647 5645 5642 5638
5686 5681 5687 5701 5710 5700 5707 5732 5739 5748 5763 5763 5761 5765 5770 5773 5774 5769 5764 5758 5754 5752 5746 5739 5734 5725 5718 5712 5708 5701 5696 5689 5688 5683 5681 5677 5673 5671 5666 5662 5657 5653 5649 5644 5641 5638 5636 5632 5629
5676 5674 5680 5683 5695 5704 5696 5734 5748 5754 5758 5764 5759 5765 5770 5767 5767 5767 5758 5754 5748 5744 5742 5739 5733 5728 5719 5709 5698 5689 5683 5680 5678 5677 5672 5669 5668 5664 5660 5656 5651 5647 5643 5639 5634 5630 5628 5626 5620
5665 5686 5682 5675 5664 5672 5691 5698 5740 5747 5755 5746 5751 5754 5758 5755 5756 5757 5755 5749 5746 5746 5742 5737 5733 5728 5717 5707 5699 5695 5696 5689 5685 5677 5668 5664 5661 5657 5654 5649 5644 5640 5636 5633 5628 5623 5620 5616 5613
5677 5678 5671 5666 5659 5657 5674 5660 5758 5740 5731 5738 5745 5746 5744 5745 5746 5743 5738 5741 5745 5741 5736 5732 5726 5720 5715 5707 5701 5695 5690 5687 5676 5667 5662 5659 5654 5650 5647 5643 5638 5634 5629 5626 5622 5617 5612 5608 5604
5675 5666 5657 5643 5644 5645 5674 5655 5735 5729 5721 5717 5729 5735 5732 5718 5715 5715 5719 5720 5723 5723 5725 5721 5719 5720 5713 5706 5700 5696 5689 5681 5670 5664 5659 5653 5648 5643 5639 5636 5631 5627 5623 5619 5614 5610 5605 5600 5595
5660 5641 5626 5631 5622 5641 5650 5647 5708 5714 5717 5705 5700 5697 5691 5698 5701 5702 5703 5704 5710 5713 5713 5714 5711 5711 5707 5701 5697 5692 5686 5678 5673 5665 5659 5649 5644 5638 5634 5630 5624 5620 5615 5612 5607 5603 5598 5593 5588
5639 5630 5611 5601 5617 5630 5637 5636 5682 5692 5687 5673 5664 5655 5655 5661 5670 5680 5683 5689 5695 5701 5704 5703 5702 5702 5696 5690 5691 5688 5681 5674 5670 5663 5656 5649 5644 5638 5631 5624 5618 5613 5608 5603 5600 5595 5591 5586 5581
5619 5606 5601 5586 5609 5590 5626 5638 5659 5672 5649 5640 5643 5646 5639 5639 5642 5650 5660 5672 5680 5688 5692 5694 5693 5689 5693 5690 5683 5680 5675 5670 5665 5656 5650 5645 5637 5630 5624 5618 5611 5605 5601 5596 5592 5588 5584 5579 5574
5596 5584 5569 5566 5558 5567 5599 5604 5612 5627 5602 5609 5613 5617 5619 5621 5624 5630 5642 5652 5663 5670 5678 5679 5680 5679 5676 5678 5680 5678 5672 5665 5658 5651 5645 5638 5631 5625 5617 5612 5604 5599 5594 5590 5585 5580 5576 5571 5567
5569 5553 5544 5536 5539 5527 5536 5565 5570 5571 5563 5565 5574 5579 5582 5588 5593 5598 5612 5624 5639 5648 5660 5664 5667 5667 5666 5660 5664 5667 5664 5658 5651 5646 5640 5635 5628 5621 5614 5610 5600 5595 5589 5584 5579 5575 5570 5565 5560
5543 5522 5502 5468 5481 5479 5452 5463 5535 5531 5537 5536 5541 5543 5557 5566 5576 5581 5593 5603 5612 5630 5638 5644 5649 5655 5656 5655 5653 5652 5653 5651 5648 5643 5636 5629 5623 5616 5611 5606 5598 5590 5584 5579 5574 5569 5565 5559 5553